SB KEPS @ AMSAT $ORB13192.O Orbital Elements 13192.OSCAR
HR AMSAT ORBITAL ELEMENTS FOR OSCAR SATELLITES FROM WA5QGD FORT WORTH,TX July 11, 2013 BID: ORB13192.O TO ALL RADIO AMATEURS BT
Satellite: AO-07 Catalog number: 07530 Epoch time: 13192.04585311 Element set: 725 Inclination: 101.4323 deg RA of node: 180.6865 deg Eccentricity: 0.0011441 Arg of perigee: 240.4438 deg Mean anomaly: 162.1875 deg Mean motion: 12.53596926 rev/day Decay rate: -2.4e-07 rev/day^2 Epoch rev: 76877 Checksum: 294
Satellite: FO-29 Catalog number: 24278 Epoch time: 13191.81261819 Element set: 151 Inclination: 098.5537 deg RA of node: 247.2164 deg Eccentricity: 0.0351622 Arg of perigee: 102.9654 deg Mean anomaly: 008.0755 deg Mean motion: 13.53003567 rev/day Decay rate: -3.0e-07 rev/day^2 Epoch rev: 83450 Checksum: 294
Satellite: SO-33 Catalog number: 25509 Epoch time: 13192.63978500 Element set: 536 Inclination: 031.4315 deg RA of node: 289.1733 deg Eccentricity: 0.0351007 Arg of perigee: 011.9979 deg Mean anomaly: 089.9601 deg Mean motion: 14.29097445 rev/day Decay rate: 9.5e-07 rev/day^2 Epoch rev: 76839 Checksum: 333
Satellite: RS-22 Catalog number: 27939 Epoch time: 13192.77891430 Element set: 576 Inclination: 097.7986 deg RA of node: 019.3425 deg Eccentricity: 0.0014427 Arg of perigee: 106.9773 deg Mean anomaly: 253.3030 deg Mean motion: 14.64503589 rev/day Decay rate: 5.25e-06 rev/day^2 Epoch rev: 52289 Checksum: 337
Satellite: VO-52 Catalog number: 28650 Epoch time: 13192.12359144 Element set: 470 Inclination: 097.5681 deg RA of node: 209.4983 deg Eccentricity: 0.0025753 Arg of perigee: 198.2489 deg Mean anomaly: 202.4899 deg Mean motion: 14.83971980 rev/day Decay rate: 5.72e-06 rev/day^2 Epoch rev: 44263 Checksum: 345
Satellite: HO-68 Catalog number: 36122 Epoch time: 13192.75215355 Element set: 713 Inclination: 100.3043 deg RA of node: 249.1822 deg Eccentricity: 0.0007262 Arg of perigee: 300.0949 deg Mean anomaly: 059.9444 deg Mean motion: 13.16305317 rev/day Decay rate: -4.4e-07 rev/day^2 Epoch rev: 17164 Checksum: 273
/EX SB KEPS @ AMSAT $ORB13192.D Orbital Elements 13192.MICROS
HR AMSAT ORBITAL ELEMENTS FOR THE MICROSATS FROM WA5QGD FORT WORTH,TX July 11, 2013 BID: ORB13192.D TO ALL RADIO AMATEURS BT
Satellite: UO-11 Catalog number: 14781 Epoch time: 13191.28295723 Element set: 226 Inclination: 097.9012 deg RA of node: 252.2639 deg Eccentricity: 0.0008588 Arg of perigee: 204.2465 deg Mean anomaly: 155.8345 deg Mean motion: 14.80940382 rev/day Decay rate: 3.56e-06 rev/day^2 Epoch rev: 57735 Checksum: 316
Satellite: AO-16 Catalog number: 20439 Epoch time: 13192.81337172 Element set: 790 Inclination: 098.4712 deg RA of node: 132.2700 deg Eccentricity: 0.0012181 Arg of perigee: 087.8054 deg Mean anomaly: 325.4197 deg Mean motion: 14.32187634 rev/day Decay rate: 5.7e-07 rev/day^2 Epoch rev: 22576 Checksum: 295
Satellite: LO-19 Catalog number: 20442 Epoch time: 13192.09314575 Element set: 724 Inclination: 098.4405 deg RA of node: 133.2755 deg Eccentricity: 0.0013079 Arg of perigee: 080.8276 deg Mean anomaly: 041.3202 deg Mean motion: 14.32397743 rev/day Decay rate: 4.5e-07 rev/day^2 Epoch rev: 22585 Checksum: 289
Satellite: AO-27 Catalog number: 22825 Epoch time: 13192.08487038 Element set: 427 Inclination: 098.6187 deg RA of node: 135.8583 deg Eccentricity: 0.0007929 Arg of perigee: 210.5438 deg Mean anomaly: 277.9277 deg Mean motion: 14.29574670 rev/day Decay rate: 3.5e-07 rev/day^2 Epoch rev: 3204 Checksum: 331
Satellite: IO-26 Catalog number: 22826 Epoch time: 13192.07984985 Element set: 183 Inclination: 098.6129 deg RA of node: 136.1352 deg Eccentricity: 0.0008587 Arg of perigee: 203.8744 deg Mean anomaly: 284.7950 deg Mean motion: 14.29860078 rev/day Decay rate: 4.8e-07 rev/day^2 Epoch rev: 3217 Checksum: 334
Satellite: GO-32 Catalog number: 25397 Epoch time: 13192.10461421 Element set: 110 Inclination: 098.4164 deg RA of node: 158.8242 deg Eccentricity: 0.0001158 Arg of perigee: 164.1251 deg Mean anomaly: 326.4699 deg Mean motion: 14.23348698 rev/day Decay rate: 2.6e-07 rev/day^2 Epoch rev: 77934 Checksum: 301
Satellite: NO-44 Catalog number: 26931 Epoch time: 13192.79726520 Element set: 369 Inclination: 067.0505 deg RA of node: 196.0672 deg Eccentricity: 0.0007947 Arg of perigee: 277.0581 deg Mean anomaly: 135.4062 deg Mean motion: 14.29939185 rev/day Decay rate: 2.2e-07 rev/day^2 Epoch rev: 61494 Checksum: 323
Satellite: SO-50 Catalog number: 27607 Epoch time: 13192.15201498 Element set: 110 Inclination: 064.5558 deg RA of node: 191.1784 deg Eccentricity: 0.0042185 Arg of perigee: 156.2850 deg Mean anomaly: 273.7071 deg Mean motion: 14.72991123 rev/day Decay rate: 2.04e-06 rev/day^2 Epoch rev: 56724 Checksum: 292
Satellite: CO-55 Catalog number: 27844 Epoch time: 13192.77055072 Element set: 690 Inclination: 098.7011 deg RA of node: 201.4850 deg Eccentricity: 0.0010155 Arg of perigee: 171.4875 deg Mean anomaly: 240.6679 deg Mean motion: 14.21239603 rev/day Decay rate: 1.14e-06 rev/day^2 Epoch rev: 52022 Checksum: 282
Satellite: CO-57 Catalog number: 27848 Epoch time: 13192.58297944 Element set: 636 Inclination: 098.7098 deg RA of node: 200.8252 deg Eccentricity: 0.0009968 Arg of perigee: 177.7341 deg Mean anomaly: 328.9318 deg Mean motion: 14.20962897 rev/day Decay rate: 9.9e-07 rev/day^2 Epoch rev: 52012 Checksum: 363
Satellite: AO-51 Catalog number: 28375 Epoch time: 13191.85474481 Element set: 601 Inclination: 098.2026 deg RA of node: 146.3660 deg Eccentricity: 0.0082182 Arg of perigee: 304.9069 deg Mean anomaly: 107.2320 deg Mean motion: 14.41137406 rev/day Decay rate: 7.1e-07 rev/day^2 Epoch rev: 47474 Checksum: 290
Satellite: CP3 Catalog number: 31129 Epoch time: 13192.50115647 Element set: 500 Inclination: 097.8990 deg RA of node: 183.7668 deg Eccentricity: 0.0099602 Arg of perigee: 352.6145 deg Mean anomaly: 152.9982 deg Mean motion: 14.53721901 rev/day Decay rate: 4.30e-06 rev/day^2 Epoch rev: 33052 Checksum: 300
Satellite: CO-65 Catalog number: 32785 Epoch time: 13192.17909413 Element set: 680 Inclination: 097.7498 deg RA of node: 249.0290 deg Eccentricity: 0.0013602 Arg of perigee: 223.1248 deg Mean anomaly: 202.8335 deg Mean motion: 14.83965582 rev/day Decay rate: 5.52e-06 rev/day^2 Epoch rev: 28143 Checksum: 318
Satellite: PRISM Catalog number: 33493 Epoch time: 13192.79073823 Element set: 974 Inclination: 098.2194 deg RA of node: 350.5359 deg Eccentricity: 0.0019356 Arg of perigee: 111.3134 deg Mean anomaly: 249.0151 deg Mean motion: 14.86158027 rev/day Decay rate: 2.517e-05 rev/day^2 Epoch rev: 24157 Checksum: 304
Satellite: SOHLA-1 Catalog number: 33496 Epoch time: 13192.85138880 Element set: 92 Inclination: 098.1373 deg RA of node: 308.8084 deg Eccentricity: 0.0005668 Arg of perigee: 233.9184 deg Mean anomaly: 272.2562 deg Mean motion: 14.70321525 rev/day Decay rate: 1.63e-06 rev/day^2 Epoch rev: 23949 Checksum: 314
Satellite: SO-67 Catalog number: 35870 Epoch time: 13192.74325006 Element set: 227 Inclination: 097.1897 deg RA of node: 220.6156 deg Eccentricity: 0.0001098 Arg of perigee: 160.8209 deg Mean anomaly: 310.7475 deg Mean motion: 15.27407957 rev/day Decay rate: 4.599e-05 rev/day^2 Epoch rev: 21200 Checksum: 312
Satellite: TISAT-1 Catalog number: 36799 Epoch time: 13192.87365387 Element set: 247 Inclination: 098.0341 deg RA of node: 277.7110 deg Eccentricity: 0.0014304 Arg of perigee: 354.4135 deg Mean anomaly: 005.6906 deg Mean motion: 14.83437203 rev/day Decay rate: 1.610e-05 rev/day^2 Epoch rev: 16223 Checksum: 290
Satellite: STUDSAT Catalog number: 36801 Epoch time: 13190.84523463 Element set: 651 Inclination: 098.0455 deg RA of node: 279.0241 deg Eccentricity: 0.0010345 Arg of perigee: 339.4533 deg Mean anomaly: 132.8228 deg Mean motion: 14.88699204 rev/day Decay rate: 5.270e-05 rev/day^2 Epoch rev: 16210 Checksum: 287
Satellite: ALMASAT-1 Catalog number: 38078 Epoch time: 13192.40591565 Element set: 424 Inclination: 069.4705 deg RA of node: 144.7627 deg Eccentricity: 0.0689274 Arg of perigee: 116.1525 deg Mean anomaly: 251.2184 deg Mean motion: 14.25958452 rev/day Decay rate: 1.8774e-04 rev/day^2 Epoch rev: 7269 Checksum: 334
Satellite: XATCOBEO Catalog number: 38082 Epoch time: 13192.90272541 Element set: 313 Inclination: 069.4704 deg RA of node: 115.9721 deg Eccentricity: 0.0559530 Arg of perigee: 100.6169 deg Mean anomaly: 326.3451 deg Mean motion: 14.58902813 rev/day Decay rate: 6.0221e-04 rev/day^2 Epoch rev: 7352 Checksum: 280
Satellite: SOMP Catalog number: 39135 Epoch time: 13192.74187207 Element set: 176 Inclination: 064.8769 deg RA of node: 131.4656 deg Eccentricity: 0.0010768 Arg of perigee: 205.6744 deg Mean anomaly: 154.3918 deg Mean motion: 15.00434609 rev/day Decay rate: 3.402e-05 rev/day^2 Epoch rev: 1251 Checksum: 292
Satellite: CUBEBUG-1 Catalog number: 39153 Epoch time: 13192.87178387 Element set: 209 Inclination: 098.0738 deg RA of node: 268.6197 deg Eccentricity: 0.0018698 Arg of perigee: 009.3818 deg Mean anomaly: 350.7711 deg Mean motion: 14.76494560 rev/day Decay rate: 9.22e-06 rev/day^2 Epoch rev: 1132 Checksum: 333
Satellite: ESTCUBE-1 Catalog number: 39161 Epoch time: 13192.75347785 Element set: 177 Inclination: 098.1272 deg RA of node: 270.8805 deg Eccentricity: 0.0010897 Arg of perigee: 039.4869 deg Mean anomaly: 320.7119 deg Mean motion: 14.69012427 rev/day Decay rate: 7.57e-06 rev/day^2 Epoch rev: 960 Checksum: 324
/EX SB KEPS @ AMSAT $ORB13192.W Orbital Elements 13192.WEATHER
HR AMSAT ORBITAL ELEMENTS FOR WEATHER SATELLITES FROM WA5QGD FORT WORTH,TX July 11, 2013 BID: ORB13192.W TO ALL RADIO AMATEURS BT
Satellite: NOAA-10 Catalog number: 16969 Epoch time: 13192.15402125 Element set: 421 Inclination: 098.5446 deg RA of node: 219.4696 deg Eccentricity: 0.0012791 Arg of perigee: 170.3854 deg Mean anomaly: 233.7766 deg Mean motion: 14.27650639 rev/day Decay rate: 2.0e-07 rev/day^2 Epoch rev: 39536 Checksum: 312
